NKS5454 KFLL-KATL

Flight info

Callsign NKS5454
Flight time 1h 20m
Altitude 36000
Route FRSBE2 STYMY Q77 SHRKS LAIRI LARZZ JJEDI3
Aircraft A320/M-D/C

Departure

Time 2026-05-03 21:36
Airport Fort Lauderdale Hollywood International Airport (KFLL)

Arrival

Time 2026-05-03 22:57
Airport Hartsfield Jackson Atlanta International Airport (KATL)
Time Latitude Longitude Altitude Speed Heading
2026-05-03 20:49 26.07376 -80.14701 26 ft 0 kts 189°
2026-05-03 21:00 26.07378 -80.14701 23 ft 1 kts 189°
2026-05-03 21:00 26.07395 -80.14698 25 ft 3 kts 189°
2026-05-03 21:01 26.07415 -80.14694 26 ft 3 kts 186°
2026-05-03 21:01 26.07435 -80.14692 25 ft 3 kts 181°
2026-05-03 21:01 26.07456 -80.14693 24 ft 3 kts 179°
2026-05-03 21:01 26.07475 -80.14692 26 ft 3 kts 194°
2026-05-03 21:02 26.07477 -80.14692 25 ft 3 kts 198°
2026-05-03 21:02 26.07486 -80.14689 24 ft 3 kts 234°
2026-05-03 21:02 26.07489 -80.14685 24 ft 0 kts 270°
2026-05-03 21:06 26.07489 -80.14708 25 ft 6 kts 270°
2026-05-03 21:06 26.07488 -80.14766 22 ft 9 kts 268°
2026-05-03 21:07 26.07488 -80.14851 21 ft 13 kts 270°
2026-05-03 21:07 26.07489 -80.14957 20 ft 15 kts 270°
2026-05-03 21:07 26.07489 -80.15075 20 ft 16 kts 270°
2026-05-03 21:07 26.07490 -80.15211 18 ft 19 kts 270°
2026-05-03 21:08 26.07491 -80.15370 16 ft 22 kts 270°
2026-05-03 21:08 26.07492 -80.15538 18 ft 22 kts 270°
2026-05-03 21:08 26.07493 -80.15707 19 ft 23 kts 270°
2026-05-03 21:08 26.07494 -80.15883 21 ft 23 kts 270°
2026-05-03 21:09 26.07495 -80.16052 25 ft 21 kts 270°
2026-05-03 21:09 26.07496 -80.16194 25 ft 15 kts 270°
2026-05-03 21:09 26.07496 -80.16320 24 ft 17 kts 270°
2026-05-03 21:09 26.07496 -80.16390 24 ft 8 kts 270°
2026-05-03 21:10 26.07496 -80.16395 24 ft 0 kts 270°
2026-05-03 21:13 26.07497 -80.16414 24 ft 6 kts 270°
2026-05-03 21:13 26.07497 -80.16475 24 ft 7 kts 270°
2026-05-03 21:13 26.07497 -80.16487 24 ft 0 kts 271°
2026-05-03 21:14 26.07497 -80.16493 24 ft 2 kts 271°
2026-05-03 21:15 26.07497 -80.16527 25 ft 2 kts 270°
2026-05-03 21:15 26.07497 -80.16529 24 ft 0 kts 270°
2026-05-03 21:16 26.07497 -80.16535 24 ft 2 kts 270°
2026-05-03 21:16 26.07497 -80.16553 24 ft 3 kts 269°
2026-05-03 21:16 26.07497 -80.16571 24 ft 2 kts 269°
2026-05-03 21:16 26.07497 -80.16579 24 ft 0 kts 270°
2026-05-03 21:23 26.07497 -80.16583 24 ft 2 kts 271°
2026-05-03 21:23 26.07501 -80.16610 24 ft 6 kts 282°
2026-05-03 21:23 26.07513 -80.16631 23 ft 0 kts 313°
2026-05-03 21:30 26.07520 -80.16637 23 ft 5 kts 321°
2026-05-03 21:30 26.07541 -80.16643 23 ft 0 kts 358°
2026-05-03 21:31 26.07546 -80.16643 23 ft 4 kts 358°
2026-05-03 21:31 26.07588 -80.16643 23 ft 0 kts
2026-05-03 21:33 26.07614 -80.16643 22 ft 9 kts
2026-05-03 21:33 26.07682 -80.16626 22 ft 9 kts 44°
2026-05-03 21:34 26.07695 -80.16584 23 ft 0 kts 90°
2026-05-03 21:35 26.07695 -80.16435 26 ft 56 kts 90°
2026-05-03 21:36 26.07690 -80.15698 19 ft 131 kts 90°
2026-05-03 21:36 26.07673 -80.14522 338 ft 159 kts 89°
2026-05-03 21:36 26.07678 -80.13219 920 ft 177 kts 86°
2026-05-03 21:36 26.07730 -80.11781 1567 ft 193 kts 86°
2026-05-03 21:37 26.07806 -80.10226 2226 ft 209 kts 80°
2026-05-03 21:37 26.08313 -80.08657 2862 ft 225 kts 53°
2026-05-03 21:37 26.09438 -80.07361 3546 ft 241 kts 35°
2026-05-03 21:37 26.10968 -80.06346 3935 ft 276 kts 21°
2026-05-03 21:38 26.12911 -80.05589 4004 ft 316 kts 16°
2026-05-03 21:38 26.15185 -80.05070 4011 ft 349 kts 360°
2026-05-03 21:38 26.17571 -80.05411 4003 ft 340 kts 341°
2026-05-03 21:38 26.19749 -80.06241 4005 ft 325 kts 337°
2026-05-03 21:39 26.21627 -80.07435 4009 ft 307 kts 317°
2026-05-03 21:39 26.22978 -80.09188 4010 ft 293 kts 299°
2026-05-03 21:39 26.23790 -80.11298 4502 ft 304 kts 290°
2026-05-03 21:39 26.24568 -80.13522 5366 ft 311 kts 290°
2026-05-03 21:40 26.25398 -80.15764 6228 ft 316 kts 295°
2026-05-03 21:40 26.26551 -80.17863 7067 ft 321 kts 301°
2026-05-03 21:40 26.27774 -80.19984 7917 ft 326 kts 300°
2026-05-03 21:40 26.29005 -80.22134 8800 ft 332 kts 300°
2026-05-03 21:41 26.30241 -80.24302 9665 ft 338 kts 300°
2026-05-03 21:41 26.31512 -80.26536 10520 ft 345 kts 299°
2026-05-03 21:41 26.32812 -80.28827 11361 ft 354 kts 300°
2026-05-03 21:41 26.34141 -80.31175 12228 ft 361 kts 299°
2026-05-03 21:42 26.35493 -80.33568 12775 ft 360 kts 299°
2026-05-03 21:42 26.36787 -80.35844 12961 ft 345 kts 299°
2026-05-03 21:42 26.38107 -80.38176 13019 ft 364 kts 298°
2026-05-03 21:42 26.39514 -80.40680 13160 ft 395 kts 299°
2026-05-03 21:43 26.40993 -80.43306 13979 ft 404 kts 299°
2026-05-03 21:43 26.42499 -80.45966 14802 ft 406 kts 299°
2026-05-03 21:43 26.44012 -80.48635 15663 ft 407 kts 298°
2026-05-03 21:43 26.45530 -80.51312 16539 ft 408 kts 298°
2026-05-03 21:44 26.47169 -80.53911 17453 ft 413 kts 307°
2026-05-03 21:44 26.49326 -80.56062 18428 ft 421 kts 320°
2026-05-03 21:44 26.51921 -80.57561 19284 ft 431 kts 334°
2026-05-03 21:44 26.54808 -80.58514 20169 ft 432 kts 338°
2026-05-03 21:45 26.57697 -80.59415 21102 ft 430 kts 337°
2026-05-03 21:45 26.60573 -80.60309 22046 ft 428 kts 337°
2026-05-03 21:45 26.63441 -80.61211 22917 ft 429 kts 336°
2026-05-03 21:45 26.66303 -80.62120 23757 ft 431 kts 336°
2026-05-03 21:46 26.69207 -80.63048 24499 ft 433 kts 336°
2026-05-03 21:46 26.72107 -80.63976 25245 ft 431 kts 335°
2026-05-03 21:46 26.74971 -80.64891 25965 ft 426 kts 335°
2026-05-03 21:46 26.77809 -80.65792 26632 ft 421 kts 335°
2026-05-03 21:47 26.80618 -80.66681 27281 ft 417 kts 335°
2026-05-03 21:47 26.83390 -80.67560 27886 ft 413 kts 335°
2026-05-03 21:47 26.86141 -80.68434 28429 ft 411 kts 334°
2026-05-03 21:47 26.88867 -80.69312 28939 ft 412 kts 334°
2026-05-03 21:48 26.91607 -80.70200 29386 ft 412 kts 333°
2026-05-03 21:48 26.94354 -80.71157 29821 ft 412 kts 332°
2026-05-03 21:48 26.97083 -80.72178 30234 ft 412 kts 331°
2026-05-03 21:48 26.99790 -80.73232 30605 ft 412 kts 330°
2026-05-03 21:49 27.02500 -80.74296 30958 ft 413 kts 330°
2026-05-03 21:49 27.05211 -80.75355 31336 ft 414 kts 330°
2026-05-03 21:49 27.07942 -80.76409 31692 ft 415 kts 330°
2026-05-03 21:49 27.10681 -80.77453 32043 ft 416 kts 329°
2026-05-03 21:50 27.13424 -80.78493 32387 ft 417 kts 329°
2026-05-03 21:50 27.16181 -80.79536 32736 ft 418 kts 329°
2026-05-03 21:50 27.18900 -80.80564 33104 ft 420 kts 329°
2026-05-03 21:50 27.21687 -80.81618 33439 ft 421 kts 328°
2026-05-03 21:51 27.24463 -80.82671 33752 ft 422 kts 328°
2026-05-03 21:51 27.27265 -80.83735 34056 ft 424 kts 328°
2026-05-03 21:51 27.30068 -80.84800 34336 ft 425 kts 328°
2026-05-03 21:51 27.32864 -80.85865 34607 ft 426 kts 328°
2026-05-03 21:52 27.35665 -80.86973 34886 ft 426 kts 327°
2026-05-03 21:52 27.38460 -80.88121 35021 ft 430 kts 326°
2026-05-03 21:52 27.40127 -80.88819 35055 ft 434 kts 326°
2026-05-03 21:53 27.42542 -80.89839 35069 ft 441 kts 327°
2026-05-03 21:53 27.48405 -80.92306 35065 ft 457 kts 327°
2026-05-03 21:54 27.54472 -80.94813 35089 ft 470 kts 328°
2026-05-03 21:54 27.60674 -80.97344 35080 ft 474 kts 328°
2026-05-03 21:55 27.66879 -80.99889 35068 ft 475 kts 328°
2026-05-03 21:55 27.73042 -81.02430 35069 ft 475 kts 328°
2026-05-03 21:56 27.79240 -81.05002 35088 ft 474 kts 327°
2026-05-03 21:56 27.85426 -81.07573 35073 ft 473 kts 327°
2026-05-03 21:57 27.91617 -81.10138 35078 ft 473 kts 327°
2026-05-03 21:57 27.97816 -81.12707 35077 ft 473 kts 327°
2026-05-03 21:58 28.03993 -81.15288 35088 ft 472 kts 326°
2026-05-03 21:58 28.09942 -81.18143 35120 ft 465 kts 323°
2026-05-03 21:59 28.15773 -81.21272 35093 ft 462 kts 322°
2026-05-03 21:59 28.21594 -81.24390 35090 ft 463 kts 322°
2026-05-03 22:00 28.27480 -81.27448 35090 ft 464 kts 323°
2026-05-03 22:00 28.33375 -81.30467 35078 ft 466 kts 323°
2026-05-03 22:01 28.39295 -81.33493 35118 ft 466 kts 323°
2026-05-03 22:01 28.45175 -81.36490 35082 ft 466 kts 323°
2026-05-03 22:02 28.51096 -81.39521 35094 ft 466 kts 323°
2026-05-03 22:02 28.57015 -81.42553 35092 ft 466 kts 323°
2026-05-03 22:03 28.62930 -81.45590 35093 ft 466 kts 323°
2026-05-03 22:03 28.68814 -81.48613 35095 ft 466 kts 323°
2026-05-03 22:04 28.74714 -81.51646 35103 ft 465 kts 323°
2026-05-03 22:04 28.80615 -81.54681 35098 ft 465 kts 323°
2026-05-03 22:05 28.86520 -81.57723 35099 ft 465 kts 323°
2026-05-03 22:05 28.92520 -81.60583 35103 ft 480 kts 332°
2026-05-03 22:06 28.95894 -81.61251 35104 ft 501 kts 343°
2026-05-03 22:06 28.99377 -81.61575 35163 ft 502 kts 343°
2026-05-03 22:06 29.06290 -81.62175 35113 ft 501 kts 343°
2026-05-03 22:07 29.13244 -81.62788 35117 ft 500 kts 343°
2026-05-03 22:07 29.20192 -81.63428 35117 ft 500 kts 343°
2026-05-03 22:08 29.27127 -81.64077 35119 ft 500 kts 343°
2026-05-03 22:08 29.34067 -81.64713 35127 ft 499 kts 343°
2026-05-03 22:09 29.40986 -81.65343 35128 ft 499 kts 343°
2026-05-03 22:10 29.51305 -81.66287 35123 ft 493 kts 343°
2026-05-03 22:10 29.58033 -81.66886 35167 ft 480 kts 343°
2026-05-03 22:11 29.64647 -81.67503 35134 ft 476 kts 343°
2026-05-03 22:11 29.71269 -81.68129 35134 ft 476 kts 343°
2026-05-03 22:12 29.77831 -81.68746 35134 ft 476 kts 343°
2026-05-03 22:12 29.84449 -81.69358 35132 ft 476 kts 343°
2026-05-03 22:13 29.90983 -81.69958 35126 ft 475 kts 343°
2026-05-03 22:13 29.97468 -81.70559 35129 ft 474 kts 343°
2026-05-03 22:14 30.04079 -81.71180 35130 ft 474 kts 343°
2026-05-03 22:14 30.10638 -81.71795 35129 ft 474 kts 343°
2026-05-03 22:15 30.17219 -81.72405 35122 ft 474 kts 344°
2026-05-03 22:15 30.23815 -81.73016 35137 ft 474 kts 344°
2026-05-03 22:16 30.30401 -81.73631 35137 ft 474 kts 344°
2026-05-03 22:16 30.36993 -81.74250 35140 ft 474 kts 344°
2026-05-03 22:17 30.43577 -81.74873 35118 ft 474 kts 344°
2026-05-03 22:17 30.50162 -81.75496 35119 ft 475 kts 344°
2026-05-03 22:18 30.56746 -81.76118 35120 ft 475 kts 344°
2026-05-03 22:18 30.63080 -81.77332 35128 ft 452 kts 329°
2026-05-03 22:18 30.65937 -81.78708 35132 ft 438 kts 321°
2026-05-03 22:19 30.68676 -81.80296 35137 ft 438 kts 321°
2026-05-03 22:19 30.74128 -81.83464 35163 ft 438 kts 321°
2026-05-03 22:20 30.79588 -81.86629 35174 ft 439 kts 321°
2026-05-03 22:20 30.85071 -81.89799 35145 ft 439 kts 321°
2026-05-03 22:21 30.90498 -81.92938 35143 ft 439 kts 321°
2026-05-03 22:21 30.95966 -81.96116 35161 ft 438 kts 321°
2026-05-03 22:22 31.01423 -81.99297 35160 ft 439 kts 321°
2026-05-03 22:22 31.06885 -82.02484 35126 ft 439 kts 321°
2026-05-03 22:23 31.12357 -82.05679 35130 ft 439 kts 321°
2026-05-03 22:23 31.16905 -82.08330 35125 ft 439 kts 321°
2026-05-03 22:24 31.22380 -82.11527 35137 ft 439 kts 321°
2026-05-03 22:24 31.27843 -82.14731 35136 ft 439 kts 321°
2026-05-03 22:25 31.33304 -82.17937 35121 ft 439 kts 321°
2026-05-03 22:25 31.38736 -82.21126 35133 ft 439 kts 321°
2026-05-03 22:26 31.44226 -82.24349 35131 ft 439 kts 321°
2026-05-03 22:26 31.49652 -82.27539 35118 ft 439 kts 321°
2026-05-03 22:27 31.55105 -82.30758 35125 ft 439 kts 321°
2026-05-03 22:27 31.60556 -82.33974 35116 ft 438 kts 321°
2026-05-03 22:28 31.65999 -82.37181 35126 ft 437 kts 321°
2026-05-03 22:28 31.71428 -82.40393 35134 ft 437 kts 321°
2026-05-03 22:29 31.76867 -82.43615 35122 ft 437 kts 321°
2026-05-03 22:29 31.82296 -82.46836 35125 ft 437 kts 321°
2026-05-03 22:30 31.87696 -82.50046 35120 ft 436 kts 321°
2026-05-03 22:30 31.93112 -82.53270 35119 ft 436 kts 321°
2026-05-03 22:31 31.98131 -82.57004 35119 ft 415 kts 308°
2026-05-03 22:31 32.02485 -82.61465 35119 ft 415 kts 308°
2026-05-03 22:32 32.06852 -82.65915 35120 ft 415 kts 308°
2026-05-03 22:32 32.11233 -82.70368 35119 ft 415 kts 308°
2026-05-03 22:33 32.15569 -82.74796 35125 ft 415 kts 308°
2026-05-03 22:33 32.20010 -82.79374 34718 ft 430 kts 308°
2026-05-03 22:33 32.22270 -82.81700 34113 ft 432 kts 309°
2026-05-03 22:34 32.24554 -82.84039 33344 ft 434 kts 309°
2026-05-03 22:34 32.26834 -82.86371 32583 ft 436 kts 310°
2026-05-03 22:34 32.29132 -82.88717 31852 ft 437 kts 310°
2026-05-03 22:34 32.31432 -82.91065 31151 ft 437 kts 310°
2026-05-03 22:35 32.33726 -82.93416 30451 ft 436 kts 310°
2026-05-03 22:35 32.36014 -82.95773 29669 ft 437 kts 311°
2026-05-03 22:35 32.38283 -82.98114 28901 ft 437 kts 311°
2026-05-03 22:35 32.40573 -83.00475 28152 ft 436 kts 311°
2026-05-03 22:36 32.42871 -83.02846 27439 ft 440 kts 312°
2026-05-03 22:36 32.45187 -83.05234 26702 ft 441 kts 313°
2026-05-03 22:36 32.47505 -83.07617 25987 ft 439 kts 313°
2026-05-03 22:36 32.49830 -83.10011 25380 ft 445 kts 313°
2026-05-03 22:37 32.52172 -83.12426 25151 ft 447 kts 313°
2026-05-03 22:37 32.54498 -83.14824 25105 ft 448 kts 313°
2026-05-03 22:37 32.56857 -83.17257 25120 ft 449 kts 314°
2026-05-03 22:37 32.59218 -83.19691 24686 ft 449 kts 314°
2026-05-03 22:38 32.61550 -83.22102 24095 ft 445 kts 314°
2026-05-03 22:38 32.63839 -83.24474 23483 ft 442 kts 314°
2026-05-03 22:38 32.66147 -83.26868 22770 ft 439 kts 314°
2026-05-03 22:38 32.68442 -83.29262 22091 ft 446 kts 314°
2026-05-03 22:39 32.70773 -83.31699 21423 ft 448 kts 314°
2026-05-03 22:39 32.73113 -83.34142 20749 ft 447 kts 315°
2026-05-03 22:39 32.75453 -83.36575 20049 ft 443 kts 315°
2026-05-03 22:39 32.77769 -83.38979 19383 ft 440 kts 315°
2026-05-03 22:40 32.80062 -83.41362 18687 ft 436 kts 315°
2026-05-03 22:40 32.82339 -83.43740 17927 ft 432 kts 315°
2026-05-03 22:40 32.84537 -83.46043 17171 ft 428 kts 315°
2026-05-03 22:40 32.86749 -83.48357 16431 ft 423 kts 316°
2026-05-03 22:41 32.88950 -83.50657 16106 ft 420 kts 316°
2026-05-03 22:41 32.91120 -83.52929 15975 ft 419 kts 316°
2026-05-03 22:41 32.93296 -83.55211 16012 ft 420 kts 316°
2026-05-03 22:41 32.95492 -83.57514 15701 ft 420 kts 316°
2026-05-03 22:42 32.97660 -83.59784 15085 ft 412 kts 316°
2026-05-03 22:42 32.99797 -83.62019 14478 ft 406 kts 316°
2026-05-03 22:42 33.01918 -83.64228 13842 ft 401 kts 317°
2026-05-03 22:42 33.04008 -83.66404 13158 ft 397 kts 317°
2026-05-03 22:43 33.06079 -83.68577 12439 ft 394 kts 317°
2026-05-03 22:43 33.08122 -83.70728 11722 ft 391 kts 317°
2026-05-03 22:43 33.10154 -83.72874 11045 ft 387 kts 317°
2026-05-03 22:43 33.12165 -83.75000 10387 ft 384 kts 317°
2026-05-03 22:44 33.14081 -83.77022 10106 ft 359 kts 317°
2026-05-03 22:44 33.15863 -83.78900 9998 ft 338 kts 317°
2026-05-03 22:44 33.17651 -83.80788 10004 ft 349 kts 317°
2026-05-03 22:44 33.19511 -83.82766 9712 ft 366 kts 316°
2026-05-03 22:45 33.21353 -83.84848 9075 ft 355 kts 315°
2026-05-03 22:45 33.23055 -83.86875 8464 ft 336 kts 314°
2026-05-03 22:45 33.24648 -83.88818 8096 ft 315 kts 314°
2026-05-03 22:45 33.26121 -83.90622 7930 ft 292 kts 314°
2026-05-03 22:46 33.27511 -83.92314 7515 ft 281 kts 314°
2026-05-03 22:46 33.28849 -83.93929 7139 ft 271 kts 315°
2026-05-03 22:46 33.30154 -83.95500 6752 ft 262 kts 315°
2026-05-03 22:46 33.31436 -83.97032 6367 ft 265 kts 317°
2026-05-03 22:47 33.32958 -83.98328 5957 ft 267 kts 327°
2026-05-03 22:47 33.34513 -83.99506 5555 ft 269 kts 327°
2026-05-03 22:47 33.36087 -84.00704 5159 ft 271 kts 326°
2026-05-03 22:47 33.37665 -84.01908 5019 ft 266 kts 326°
2026-05-03 22:48 33.39249 -84.03120 5032 ft 277 kts 326°
2026-05-03 22:48 33.40867 -84.04358 5034 ft 277 kts 326°
2026-05-03 22:48 33.42472 -84.05585 5033 ft 273 kts 326°
2026-05-03 22:48 33.44039 -84.06781 5025 ft 261 kts 326°
2026-05-03 22:49 33.45512 -84.07903 5027 ft 240 kts 326°
2026-05-03 22:49 33.46877 -84.08943 5027 ft 225 kts 326°
2026-05-03 22:49 33.48159 -84.09918 5032 ft 218 kts 326°
2026-05-03 22:49 33.49444 -84.10897 4851 ft 219 kts 326°
2026-05-03 22:50 33.50727 -84.11878 4598 ft 218 kts 326°
2026-05-03 22:50 33.52009 -84.12857 4286 ft 220 kts 326°
2026-05-03 22:50 33.53301 -84.13845 3956 ft 221 kts 326°
2026-05-03 22:50 33.54603 -84.14841 3620 ft 222 kts 326°
2026-05-03 22:51 33.55900 -84.15836 3306 ft 223 kts 326°
2026-05-03 22:51 33.57199 -84.16833 3059 ft 219 kts 325°
2026-05-03 22:51 33.58450 -84.17791 3020 ft 205 kts 325°
2026-05-03 22:51 33.59611 -84.18678 3019 ft 191 kts 325°
2026-05-03 22:52 33.60713 -84.19521 2958 ft 186 kts 325°
2026-05-03 22:52 33.61790 -84.20353 2885 ft 183 kts 324°
2026-05-03 22:52 33.62663 -84.21427 2819 ft 179 kts 301°
2026-05-03 22:52 33.63120 -84.22801 2823 ft 177 kts 281°
2026-05-03 22:53 33.63173 -84.24280 2823 ft 178 kts 271°
2026-05-03 22:53 33.63171 -84.25749 2821 ft 180 kts 271°
2026-05-03 22:53 33.63172 -84.27272 2829 ft 181 kts 271°
2026-05-03 22:53 33.63174 -84.28752 2831 ft 179 kts 271°
2026-05-03 22:54 33.63175 -84.30171 2819 ft 158 kts 271°
2026-05-03 22:54 33.63175 -84.31440 2626 ft 150 kts 272°
2026-05-03 22:54 33.63176 -84.32654 2421 ft 145 kts 271°
2026-05-03 22:54 33.63177 -84.33874 2237 ft 145 kts 271°
2026-05-03 22:55 33.63178 -84.35077 2028 ft 145 kts 271°
2026-05-03 22:55 33.63177 -84.36290 1848 ft 144 kts 270°
2026-05-03 22:55 33.63163 -84.37490 1630 ft 144 kts 270°
2026-05-03 22:55 33.63166 -84.38683 1466 ft 141 kts 271°
2026-05-03 22:56 33.63171 -84.39844 1310 ft 142 kts 272°
2026-05-03 22:56 33.63181 -84.41048 1158 ft 142 kts 271°
2026-05-03 22:56 33.63184 -84.42206 1008 ft 141 kts 272°
2026-05-03 22:56 33.63187 -84.43140 1009 ft 65 kts 268°
2026-05-03 22:57 33.63186 -84.43392 1007 ft 25 kts 273°
2026-05-03 22:57 33.63218 -84.43583 1008 ft 24 kts 288°
2026-05-03 22:57 33.63250 -84.43683 1007 ft 14 kts 292°
2026-05-03 22:57 33.63317 -84.43766 1006 ft 15 kts 354°
2026-05-03 22:58 33.63348 -84.43745 1006 ft 13 kts 59°